| time (UTC) | temp F | wind direction | speed knots | gust knots | rain 1hr in | rain 24hr in | rain mn in | humidity % | barometer mb |
| 20260507004539 | 72 | 37 | 5.2 | 13.0 | 0.00 | 0.00 | 0.00 | 67 | 1008.9 |
| 20260507003036 | 73 | 16 | 7.0 | 12.2 | 0.00 | 0.00 | 0.00 | 66 | 1008.8 |
| 20260507001534 | 74 | 55 | 5.2 | 9.6 | 0.00 | 0.00 | 0.00 | 67 | 1008.6 |
| 20260507000035 | 75 | 34 | 5.2 | 12.2 | 0.00 | 0.00 | 0.00 | 66 | 1008.3 |
| 20260506234529 | 76 | 343 | 7.8 | 13.0 | 0.00 | 0.00 | 0.00 | 66 | 1008.1 |
| 20260506233028 | 77 | 55 | 6.1 | 13.0 | 0.00 | 0.00 | 0.00 | 66 | 1008.0 |
| 20260506231528 | 78 | 22 | 6.1 | 15.6 | 0.00 | 0.00 | 0.00 | 66 | 1007.6 |
| 20260506230026 | 79 | 360 | 7.8 | 15.6 | 0.00 | 0.00 | 0.00 | 66 | 1007.5 |
| 20260506224523 | 81 | 61 | 6.1 | 13.0 | 0.00 | 0.00 | 0.00 | 68 | 1007.1 |
| 20260506223023 | 82 | 67 | 6.1 | 13.0 | 0.00 | 0.00 | 0.00 | 68 | 1006.8 |
| 20260506221523 | 83 | 64 | 4.3 | 7.8 | 0.00 | 0.00 | 0.00 | 69 | 1006.7 |
| 20260506220030 | 83 | 61 | 4.3 | 10.4 | 0.00 | 0.00 | 0.00 | 69 | 1006.7 |
| 20260506214522 | 83 | 9 | 3.5 | 10.4 | 0.00 | 0.00 | 0.00 | 69 | 1006.8 |
| 20260506213028 | 84 | 44 | 5.2 | 12.2 | 0.00 | 0.00 | 0.00 | 68 | 1006.7 |
| 20260506211524 | 85 | 48 | 1.7 | 6.1 | 0.00 | 0.00 | 0.00 | 67 | 1006.6 |
| 20260506210025 | 85 | 34 | 1.7 | 5.2 | 0.00 | 0.00 | 0.00 | 68 | 1006.8 |
| 20260506204520 | 85 | 47 | 1.7 | 3.5 | 0.00 | 0.00 | 0.00 | 67 | 1006.9 |
| 20260506203024 | 85 | 9 | 0.0 | 3.5 | 0.00 | 0.00 | 0.00 | 67 | 1007.2 |
| 20260506201518 | 86 | 49 | 0.9 | 3.5 | 0.00 | 0.00 | 0.00 | 68 | 1007.2 |
| 20260506200017 | 86 | 111 | 0.9 | 4.3 | 0.00 | 0.00 | 0.00 | 69 | 1007.1 |
| 20260506194516 | 86 | 83 | 1.7 | 3.5 | 0.00 | 0.00 | 0.00 | 70 | 1007.1 |
| 20260506193017 | 85 | 42 | 0.9 | 5.2 | 0.00 | 0.00 | 0.00 | 71 | 1007.3 |
| 20260506191512 | 84 | 73 | 0.9 | 3.5 | 0.00 | 0.00 | 0.00 | 70 | 1007.4 |
| 20260506190010 | 84 | 33 | 0.9 | 3.5 | 0.00 | 0.00 | 0.00 | 72 | 1007.6 |
| 20260506184507 | 83 | 83 | 0.0 | 4.3 | 0.00 | 0.00 | 0.00 | 75 | 1007.8 |
| 20260506183005 | 83 | 5 | 3.5 | 5.2 | 0.00 | 0.00 | 0.00 | 74 | 1008.1 |
| 20260506181505 | 82 | 28 | 1.7 | 4.3 | 0.00 | 0.00 | 0.00 | 75 | 1008.2 |
| 20260506180003 | 82 | 13 | 2.6 | 4.3 | 0.00 | 0.00 | 0.00 | 76 | 1008.4 |
| 20260506174603 | 81 | 43 | 3.5 | 7.0 | 0.00 | 0.00 | 0.00 | 76 | 1008.3 |
| 20260506173112 | 81 | 47 | 2.6 | 7.0 | 0.00 | 0.00 | 0.00 | 77 | 1008.6 |
| 20260506171600 | 80 | 44 | 2.6 | 6.1 | 0.00 | 0.00 | 0.00 | 78 | 1008.9 |
| 20260506170054 | 80 | 46 | 1.7 | 4.3 | 0.00 | 0.00 | 0.00 | 80 | 1008.7 |
| 20260506164553 | 79 | 42 | 1.7 | 7.0 | 0.00 | 0.00 | 0.00 | 80 | 1008.7 |
| 20260506163052 | 78 | 32 | 1.7 | 5.2 | 0.00 | 0.00 | 0.00 | 80 | 1008.7 |
| 20260506161556 | 78 | 13 | 1.7 | 5.2 | 0.00 | 0.00 | 0.00 | 81 | 1008.7 |
| 20260506160046 | 77 | 24 | 1.7 | 4.3 | 0.00 | 0.00 | 0.00 | 81 | 1008.6 |
| 20260506154541 | 77 | 28 | 1.7 | 3.5 | 0.00 | 0.00 | 0.00 | 81 | 1008.4 |
| 20260506153039 | 77 | 32 | 0.9 | 3.5 | 0.00 | 0.00 | 0.00 | 81 | 1008.2 |
| 20260506151555 | 77 | 31 | 0.9 | 2.6 | 0.00 | 0.00 | 0.00 | 82 | 1008.0 |
| 20260506150036 | 77 | 31 | 0.0 | 3.5 | 0.00 | 0.00 | 0.00 | 82 | 1007.9 |
| 20260506144534 | 76 | 117 | 0.9 | 2.6 | 0.00 | 0.00 | 0.00 | 82 | 1007.5 |
| 20260506143043 | 76 | 116 | 1.7 | 2.6 | 0.00 | 0.00 | 0.00 | 82 | 1007.3 |
| 20260506141531 | 76 | 119 | 0.9 | 2.6 | 0.00 | 0.00 | 0.00 | 82 | 1007.3 |
| 20260506140033 | 76 | 121 | 0.0 | 2.6 | 0.00 | 0.00 | 0.00 | 82 | 1007.0 |
| 20260506134525 | 75 | 122 | 0.9 | 2.6 | 0.00 | 0.00 | 0.00 | 82 | 1006.6 |
| 20260506133025 | 75 | 134 | 0.9 | 2.6 | 0.00 | 0.00 | 0.00 | 82 | 1006.6 |
| 20260506131526 | 75 | 139 | 0.9 | 2.6 | 0.00 | 0.00 | 0.00 | 82 | 1006.6 |
| 20260506130023 | 75 | 179 | 0.0 | 1.7 | 0.00 | 0.00 | 0.00 | 82 | 1006.6 |
| 20260506124520 | 75 | 179 | 0.0 | 0.9 | 0.00 | 0.00 | 0.00 | 82 | 1006.7 |
| 20260506123020 | 74 | 179 | 0.0 | 0.9 | 0.00 | 0.00 | 0.00 | 82 | 1006.5 |
| 20260506121520 | 74 | 179 | 0.0 | 0.0 | 0.00 | 0.00 | 0.00 | 82 | 1006.4 |
| 20260506120020 | 74 | 179 | 0.0 | 0.9 | 0.00 | 0.00 | 0.00 | 82 | 1006.4 |
| 20260506114523 | 74 | 179 | 0.0 | 0.0 | 0.00 | 0.00 | 0.00 | 82 | 1006.3 |
| 20260506113019 | 74 | 179 | 0.0 | 0.9 | 0.00 | 0.00 | 0.00 | 81 | 1006.3 |
| 20260506111517 | 74 | 180 | 0.0 | 1.7 | 0.00 | 0.00 | 0.00 | 81 | 1006.3 |
| 20260506110017 | 74 | 180 | 0.0 | 0.0 | 0.00 | 0.00 | 0.00 | 81 | 1006.1 |
| 20260506104516 | 74 | 180 | 0.0 | 0.0 | 0.00 | 0.00 | 0.00 | 81 | 1006.0 |
| 20260506103016 | 74 | 180 | 0.0 | 0.0 | 0.00 | 0.00 | 0.00 | 81 | 1006.0 |
| 20260506101522 | 75 | 180 | 0.0 | 0.9 | 0.00 | 0.00 | 0.00 | 81 | 1006.0 |
| 20260506100012 | 75 | 180 | 0.0 | 2.6 | 0.00 | 0.00 | 0.00 | 81 | 1006.0 |
| 20260506094515 | 75 | 181 | 0.9 | 4.3 | 0.00 | 0.00 | 0.00 | 80 | 1005.9 |
| 20260506093009 | 76 | 169 | 0.9 | 3.5 | 0.00 | 0.00 | 0.00 | 80 | 1005.8 |
| 20260506091508 | 76 | 182 | 2.6 | 6.1 | 0.00 | 0.00 | 0.00 | 80 | 1005.8 |
| 20260506090008 | 76 | 184 | 1.7 | 5.2 | 0.00 | 0.00 | 0.00 | 80 | 1006.0 |
| 20260506084514 | 76 | 165 | 1.7 | 6.1 | 0.00 | 0.00 | 0.00 | 80 | 1006.1 |
| 20260506083003 | 76 | 176 | 1.7 | 3.5 | 0.00 | 0.00 | 0.00 | 79 | 1006.2 |
| 20260506081506 | 76 | 183 | 0.0 | 3.5 | 0.00 | 0.00 | 0.00 | 79 | 1006.1 |
| 20260506073105 | 77 | 173 | 1.7 | 5.2 | 0.00 | 0.00 | 0.00 | 79 | 1006.4 |
| 20260506071610 | 77 | 162 | 1.7 | 4.3 | 0.00 | 0.00 | 0.00 | 79 | 1006.3 |
| 20260506061550 | 77 | 153 | 3.5 | 7.0 | 0.00 | 0.00 | 0.00 | 79 | 1006.6 |
| 20260506044542 | 77 | 148 | 0.9 | 3.5 | 0.00 | 0.00 | 0.00 | 78 | 1006.5 |
| 20260506043042 | 77 | 154 | 1.7 | 7.0 | 0.00 | 0.00 | 0.00 | 78 | 1006.6 |
| 20260506041555 | 78 | 152 | 2.6 | 5.2 | 0.00 | 0.00 | 0.00 | 78 | 1006.4 |
| 20260506040041 | 78 | 130 | 1.7 | 6.1 | 0.00 | 0.00 | 0.00 | 77 | 1006.3 |
| 20260506034544 | 78 | 112 | 2.6 | 6.1 | 0.00 | 0.00 | 0.00 | 77 | 1006.0 |
| 20260506033040 | 78 | 142 | 1.7 | 4.3 | 0.00 | 0.00 | 0.00 | 76 | 1006.0 |
| 20260506031539 | 79 | 146 | 2.6 | 4.3 | 0.00 | 0.00 | 0.00 | 76 | 1005.8 |
| 20260506030038 | 79 | 151 | 1.7 | 4.3 | 0.00 | 0.00 | 0.00 | 75 | 1005.6 |
| 20260506024540 | 79 | 120 | 1.7 | 4.3 | 0.00 | 0.00 | 0.00 | 75 | 1005.5 |
| 20260506023038 | 80 | 116 | 2.6 | 4.3 | 0.00 | 0.00 | 0.00 | 74 | 1005.3 |
| 20260506021536 | 80 | 113 | 3.5 | 6.1 | 0.00 | 0.00 | 0.00 | 73 | 1004.7 |
| 20260506020036 | 81 | 113 | 1.7 | 5.2 | 0.00 | 0.00 | 0.00 | 73 | 1004.5 |
| 20260506014545 | 81 | 111 | 3.5 | 6.1 | 0.00 | 0.00 | 0.00 | 72 | 1004.5 |
| 20260506013038 | 82 | 117 | 1.7 | 4.3 | 0.00 | 0.00 | 0.00 | 71 | 1004.4 |
| 20260506011539 | 82 | 109 | 1.7 | 6.1 | 0.00 | 0.00 | 0.00 | 70 | 1004.0 |
| 20260506010034 | 83 | 115 | 1.7 | 6.1 | 0.00 | 0.00 | 0.00 | 68 | 1003.7 |